Preview of NWS' New Version of Forecast
This preview is not operational and should not be used for support decisions.

Terminal Aerodrome Forecast (TAF)

Issued by National Weather Service (NWS)

                            
000
FTUS42 KKEY 141505 AAA
TAFEYW
TAF AMD
KEYW 141505Z 1415/1512 11008KT P6SM SCT022=